Dutch Harbor, AK

9:12 PM AKDT on July 25, 2016 (GMT -0800)
Unalaska

Weather History for PADU - November, 2012

Change the Weather History Date:

Monday, November 26, 2012

  Actual Average Record
Temperature  
Mean Temperature 39 °F -  
Max Temperature 42 °F 40 °F 46 °F (1991)
Min Temperature 36 °F 27 °F 9 °F (1991)
Degree Days  
Heating Degree Days 26    
Moisture  
Dew Point 32 °F    
Average Humidity 76    
Maximum Humidity 86    
Minimum Humidity 65    
Precipitation  
Precipitation 0.26 in - - ()
Sea Level Pressure  
Sea Level Pressure 29.87 in    
Wind  
Wind Speed 15 mph (South)    
Max Wind Speed 39 mph    
Max Gust Speed 45 mph    
Visibility 9 miles    
Events Rain    
Averages and records for this station are not official NWS values.
T = Trace of Precipitation, MM = Missing Value Source: NWS Daily Summary

Daily Weather History Graph

Daily Weather History Graph

Search for Another Location

Airport or City:

Trip Planner

Search our weather history database for the weather conditions in past years. The results will help you decide how hot, cold, wet, or windy it might be!

Date:

Astronomy

Nov. 26, 2012 Rise Set
Actual Time 9:54 AM AKST 5:52 PM AKST
Civil Twilight 9:13 AM AKST 6:34 PM AKST
Nautical Twilight 8:28 AM AKST 7:18 PM AKST
Astronomical Twilight 7:46 AM AKST 8:00 PM AKST
Moon 4:59 PM AKST 8:07 AM AKST
Length of Visible Light 9h 21m
Length of Day
7h 58m
Waxing Gibbous, 97% of the Moon is Illuminated
Nov 26
Waxing Gibbous
Nov 28
Full
Dec 6
Last Quarter
Dec 12
New
Dec 19
First Quarter

Hourly Weather History & Observations

Time (AKST) Temp. Windchill Dew Point Humidity Pressure Visibility Wind Dir Wind Speed Gust Speed Precip Events Conditions
12:56 AM 36.0 °F 28.0 °F 26.1 °F 67% 30.11 in 10.0 mi South 11.5 mph 17.3 mph N/A   Scattered Clouds
1:56 AM 37.0 °F 30.4 °F 28.0 °F 70% 30.10 in 10.0 mi SSE 9.2 mph - N/A   Overcast
2:56 AM 37.0 °F 28.9 °F 28.0 °F 70% 30.08 in 10.0 mi SSE 12.7 mph - N/A   Overcast
3:56 AM 37.9 °F 27.9 °F 27.0 °F 65% 30.06 in 10.0 mi South 19.6 mph 24.2 mph N/A   Overcast
4:56 AM 37.0 °F 28.5 °F 28.9 °F 73% 30.06 in 10.0 mi SSE 13.8 mph - 0.00 in Rain Light Rain
5:56 AM 37.0 °F 28.5 °F 30.0 °F 76% 30.06 in 10.0 mi SE 13.8 mph 20.7 mph 0.00 in Rain Light Rain
6:56 AM 37.9 °F 32.7 °F 30.9 °F 76% 30.03 in 10.0 mi Variable 6.9 mph - 0.00 in Rain Light Rain
7:56 AM 39.0 °F 32.3 °F 30.9 °F 73% 29.99 in 10.0 mi South 10.4 mph 21.9 mph 0.01 in Rain Light Rain
8:56 AM 39.0 °F 31.8 °F 32.0 °F 76% 29.99 in 10.0 mi SSE 11.5 mph 17.3 mph 0.00 in Rain Light Rain
9:56 AM 39.9 °F 34.5 °F 33.1 °F 77% 29.96 in 10.0 mi SSE 8.1 mph 21.9 mph 0.01 in Rain Light Rain
10:56 AM 39.9 °F 30.8 °F 33.1 °F 77% 29.94 in 10.0 mi South 18.4 mph 33.4 mph 0.00 in   Overcast
11:56 AM 41.0 °F 32.2 °F 34.0 °F 76% 29.91 in 10.0 mi SSE 18.4 mph 32.2 mph N/A   Overcast
12:56 PM 42.1 °F 32.8 °F 34.0 °F 73% 29.86 in 10.0 mi SSE 21.9 mph 38.0 mph N/A   Overcast
1:56 PM 41.0 °F 30.7 °F 34.0 °F 76% 29.81 in 10.0 mi SE 25.3 mph 39.1 mph N/A   Overcast
2:35 PM 41.0 °F 29.5 °F 35.6 °F 81% 29.75 in 10.0 mi SE 32.2 mph 44.9 mph 0.00 in Rain Light Rain
2:56 PM 41.0 °F 30.5 °F 35.1 °F 79% 29.77 in 10.0 mi ESE 26.5 mph 33.4 mph 0.00 in Rain Light Rain
3:56 PM 41.0 °F 39.0 °F 35.1 °F 79% 29.73 in 10.0 mi Variable 3.5 mph - 0.00 in Rain Light Rain
4:56 PM 41.0 °F 33.9 °F 36.0 °F 82% 29.70 in 10.0 mi SSE 12.7 mph 20.7 mph 0.05 in Rain Light Rain
5:56 PM 41.0 °F 37.1 °F 36.0 °F 82% 29.71 in 6.0 mi Variable 5.8 mph - 0.05 in Rain Light Rain
6:56 PM 41.0 °F - 37.0 °F 86% 29.69 in 10.0 mi Calm Calm - 0.06 in Rain Light Rain
7:56 PM 39.9 °F 32.5 °F 33.1 °F 77% 29.71 in 10.0 mi NW 12.7 mph - 0.00 in Rain Light Rain
8:56 PM 39.9 °F 30.0 °F 35.1 °F 83% 29.72 in 6.0 mi WNW 21.9 mph 27.6 mph 0.02 in Rain Light Rain
9:56 PM 39.0 °F 26.8 °F 34.0 °F 82% 29.74 in 5.0 mi NW 32.2 mph 40.3 mph 0.02 in Rain Light Rain
10:32 PM 41.0 °F 30.0 °F 32.0 °F 70% 29.73 in 10.0 mi NW 28.8 mph 44.9 mph 0.01 in Rain Light Rain
10:56 PM 39.9 °F 28.0 °F 33.1 °F 77% 29.76 in 10.0 mi NW 32.2 mph 42.6 mph 0.02 in Rain Light Rain
11:56 PM 37.9 °F 24.2 °F 32.0 °F 79% 29.78 in 4.0 mi NW 39.1 mph 44.9 mph 0.02 in Rain Light Rain